| time (UTC) | temp C | wind direction | speed KPH | gust KPH | rain 1hr cm | rain 24hr cm | rain mn cm | humidity % | barometer mb |
| 20260903130748 | 5 | 73 | 0.0 | 0.0 | 0.00 | 0.00 | 0.00 | 64 | 931.1 |
| 20260903130243 | 5 | 73 | 0.0 | 0.0 | 0.00 | 0.00 | 0.00 | 64 | 931.0 |
| 20260903125741 | 5 | 82 | 0.0 | 1.6 | 0.00 | 0.00 | 0.00 | 64 | 930.9 |
| 20260903125237 | 5 | 66 | 3.2 | 3.2 | 0.00 | 0.00 | 0.00 | 65 | 931.0 |
| 20260903124736 | 5 | 72 | 1.6 | 3.2 | 0.00 | 0.00 | 0.00 | 65 | 930.9 |
| 20260903124232 | 5 | 68 | 3.2 | 3.2 | 0.00 | 0.00 | 0.00 | 66 | 930.9 |
| 20260903123730 | 5 | 53 | 0.0 | 0.0 | 0.00 | 0.00 | 0.00 | 67 | 930.8 |
| 20260903123229 | 5 | 77 | 1.6 | 3.2 | 0.00 | 0.00 | 0.00 | 67 | 930.8 |
| 20260903122728 | 5 | 64 | 0.0 | 4.8 | 0.00 | 0.00 | 0.00 | 66 | 931.0 |
| 20260903122224 | 5 | 112 | 4.8 | 4.8 | 0.00 | 0.00 | 0.00 | 66 | 930.9 |
| 20260903121722 | 6 | 158 | 0.0 | 0.0 | 0.00 | 0.00 | 0.00 | 66 | 930.9 |
| 20260903121218 | 6 | 56 | 0.0 | 0.0 | 0.00 | 0.00 | 0.00 | 64 | 931.0 |
| 20260903120718 | 6 | 55 | 0.0 | 0.0 | 0.00 | 0.00 | 0.00 | 62 | 930.9 |
| 20260903120212 | 6 | 73 | 0.0 | 0.0 | 0.00 | 0.00 | 0.00 | 61 | 930.8 |
| 20260903115710 | 7 | 59 | 0.0 | 0.0 | 0.00 | 0.00 | 0.00 | 60 | 930.8 |
| 20260903115206 | 6 | 102 | 0.0 | 0.0 | 0.00 | 0.00 | 0.00 | 60 | 930.8 |
| 20260903114701 | 6 | 105 | 0.0 | 0.0 | 0.00 | 0.00 | 0.00 | 61 | 930.7 |
| 20260903114155 | 7 | 60 | 0.0 | 0.0 | 0.00 | 0.00 | 0.00 | 58 | 930.4 |
| 20260903113651 | 7 | 60 | 0.0 | 0.0 | 0.00 | 0.00 | 0.00 | 59 | 930.5 |
| 20260903113147 | 7 | 60 | 0.0 | 0.0 | 0.00 | 0.00 | 0.00 | 59 | 930.5 |
| 20260903112644 | 7 | 62 | 0.0 | 0.0 | 0.00 | 0.00 | 0.00 | 59 | 930.7 |
| 20260903112144 | 7 | 67 | 0.0 | 0.0 | 0.00 | 0.00 | 0.00 | 60 | 930.3 |
| 20260903111642 | 7 | 61 | 0.0 | 0.0 | 0.00 | 0.00 | 0.00 | 66 | 930.4 |
| 20260903111138 | 7 | 68 | 0.0 | 0.0 | 0.00 | 0.00 | 0.00 | 66 | 930.5 |
| 20260903110634 | 7 | 71 | 0.0 | 0.0 | 0.00 | 0.00 | 0.00 | 67 | 930.3 |
| 20260903110130 | 7 | 76 | 0.0 | 0.0 | 0.00 | 0.00 | 0.00 | 66 | 930.5 |
| 20260903105624 | 8 | 75 | 0.0 | 0.0 | 0.00 | 0.00 | 0.00 | 65 | 930.3 |
| 20260903105120 | 7 | 74 | 0.0 | 0.0 | 0.00 | 0.00 | 0.00 | 67 | 930.3 |
| 20260903104619 | 8 | 78 | 0.0 | 0.0 | 0.00 | 0.00 | 0.00 | 68 | 930.5 |
| 20260903104115 | 8 | 72 | 0.0 | 0.0 | 0.00 | 0.00 | 0.00 | 67 | 930.2 |
| 20260903103610 | 8 | 75 | 0.0 | 0.0 | 0.00 | 0.00 | 0.00 | 69 | 930.4 |
| 20260903103107 | 8 | 55 | 0.0 | 0.0 | 0.00 | 0.00 | 0.00 | 68 | 930.4 |
| 20260903102602 | 8 | 60 | 0.0 | 0.0 | 0.00 | 0.00 | 0.00 | 67 | 930.4 |
| 20260903102101 | 8 | 69 | 0.0 | 0.0 | 0.00 | 0.00 | 0.00 | 67 | 930.4 |
| 20260903101555 | 8 | 60 | 0.0 | 0.0 | 0.00 | 0.00 | 0.00 | 67 | 930.5 |
| 20260903101051 | 8 | 67 | 0.0 | 0.0 | 0.00 | 0.00 | 0.00 | 65 | 930.4 |
| 20260903100551 | 9 | 53 | 0.0 | 0.0 | 0.00 | 0.00 | 0.00 | 66 | 930.3 |
| 20260903100050 | 9 | 50 | 0.0 | 0.0 | 0.00 | 0.00 | 0.00 | 66 | 930.3 |
| 20260903095548 | 9 | 50 | 0.0 | 0.0 | 0.00 | 0.00 | 0.00 | 65 | 930.8 |
| 20260903095043 | 8 | 51 | 0.0 | 0.0 | 0.00 | 0.00 | 0.00 | 65 | 930.5 |
| 20260903094542 | 9 | 52 | 0.0 | 0.0 | 0.00 | 0.00 | 0.00 | 63 | 930.7 |
| 20260903094038 | 10 | 52 | 0.0 | 0.0 | 0.00 | 0.00 | 0.00 | 62 | 930.7 |
| 20260903093533 | 10 | 53 | 0.0 | 0.0 | 0.00 | 0.00 | 0.00 | 60 | 930.3 |
| 20260903093029 | 9 | 70 | 0.0 | 0.0 | 0.00 | 0.00 | 0.00 | 65 | 930.4 |
| 20260903092528 | 9 | 56 | 0.0 | 0.0 | 0.00 | 0.00 | 0.00 | 68 | 930.5 |
| 20260903092028 | 9 | 63 | 0.0 | 0.0 | 0.00 | 0.00 | 0.00 | 65 | 930.2 |
| 20260903091527 | 9 | 70 | 0.0 | 0.0 | 0.00 | 0.00 | 0.00 | 63 | 930.3 |
| 20260903091026 | 10 | 73 | 0.0 | 0.0 | 0.00 | 0.00 | 0.00 | 63 | 930.4 |
| 20260903090523 | 10 | 63 | 0.0 | 0.0 | 0.00 | 0.00 | 0.00 | 63 | 930.4 |
| 20260903090021 | 10 | 54 | 0.0 | 0.0 | 0.00 | 0.00 | 0.00 | 64 | 930.4 |
| 20260903085519 | 10 | 53 | 0.0 | 0.0 | 0.00 | 0.00 | 0.00 | 63 | 930.4 |
| 20260903085015 | 10 | 67 | 0.0 | 0.0 | 0.00 | 0.00 | 0.00 | 62 | 930.4 |
| 20260903084513 | 10 | 67 | 0.0 | 0.0 | 0.00 | 0.00 | 0.00 | 62 | 930.4 |
| 20260903084008 | 10 | 70 | 0.0 | 0.0 | 0.00 | 0.00 | 0.00 | 61 | 930.3 |
| 20260903083504 | 10 | 73 | 0.0 | 0.0 | 0.00 | 0.00 | 0.00 | 61 | 930.1 |
| 20260903083004 | 10 | 83 | 0.0 | 0.0 | 0.00 | 0.00 | 0.00 | 61 | 930.3 |
| 20260903082458 | 10 | 59 | 0.0 | 0.0 | 0.00 | 0.00 | 0.00 | 61 | 930.3 |
| 20260903081954 | 10 | 61 | 0.0 | 0.0 | 0.00 | 0.00 | 0.00 | 62 | 930.4 |
| 20260903081449 | 10 | 68 | 0.0 | 0.0 | 0.00 | 0.00 | 0.00 | 61 | 930.4 |
| 20260903080945 | 10 | 71 | 0.0 | 0.0 | 0.00 | 0.00 | 0.00 | 60 | 930.4 |
| 20260903080441 | 10 | 68 | 0.0 | 0.0 | 0.00 | 0.00 | 0.00 | 62 | 930.1 |
| 20260903075937 | 10 | 81 | 0.0 | 0.0 | 0.00 | 0.00 | 0.00 | 62 | 930.3 |
| 20260903075432 | 10 | 103 | 0.0 | 0.0 | 0.00 | 0.00 | 0.00 | 63 | 930.3 |
| 20260903074927 | 10 | 77 | 0.0 | 0.0 | 0.00 | 0.00 | 0.00 | 62 | 930.3 |
| 20260903074426 | 10 | 68 | 0.0 | 0.0 | 0.00 | 0.00 | 0.00 | 62 | 930.4 |
| 20260903073921 | 10 | 83 | 0.0 | 1.6 | 0.00 | 0.00 | 0.00 | 62 | 930.2 |
| 20260903073416 | 10 | 58 | 0.0 | 0.0 | 0.00 | 0.00 | 0.00 | 62 | 930.2 |
| 20260903072912 | 10 | 109 | 0.0 | 0.0 | 0.00 | 0.00 | 0.00 | 61 | 930.2 |
| 20260903072408 | 10 | 67 | 0.0 | 0.0 | 0.00 | 0.00 | 0.00 | 61 | 930.3 |
| 20260903071905 | 10 | 73 | 0.0 | 0.0 | 0.00 | 0.00 | 0.00 | 58 | 930.3 |
| 20260903071401 | 10 | 91 | 0.0 | 4.8 | 0.00 | 0.00 | 0.00 | 59 | 930.1 |
| 20260903070856 | 10 | 116 | 0.0 | 3.2 | 0.00 | 0.00 | 0.00 | 59 | 930.2 |
| 20260903070350 | 10 | 81 | 0.0 | 0.0 | 0.00 | 0.00 | 0.00 | 61 | 930.3 |
| 20260903065845 | 10 | 65 | 0.0 | 0.0 | 0.00 | 0.00 | 0.00 | 59 | 930.3 |
| 20260903065344 | 10 | 57 | 0.0 | 0.0 | 0.00 | 0.00 | 0.00 | 60 | 930.2 |
| 20260903064838 | 10 | 67 | 0.0 | 0.0 | 0.00 | 0.00 | 0.00 | 60 | 930.4 |
| 20260903064334 | 10 | 61 | 0.0 | 0.0 | 0.00 | 0.00 | 0.00 | 61 | 930.3 |
| 20260903063829 | 10 | 67 | 0.0 | 0.0 | 0.00 | 0.00 | 0.00 | 59 | 930.4 |
| 20260903063324 | 10 | 55 | 0.0 | 0.0 | 0.00 | 0.00 | 0.00 | 59 | 930.2 |
| 20260903062820 | 10 | 61 | 0.0 | 0.0 | 0.00 | 0.00 | 0.00 | 60 | 930.2 |
| 20260903062320 | 10 | 69 | 0.0 | 0.0 | 0.00 | 0.00 | 0.00 | 60 | 930.1 |
| 20260903061817 | 10 | 55 | 0.0 | 0.0 | 0.00 | 0.00 | 0.00 | 60 | 930.2 |
| 20260903061315 | 10 | 64 | 0.0 | 0.0 | 0.00 | 0.00 | 0.00 | 59 | 930.1 |
| 20260903060812 | 10 | 118 | 0.0 | 0.0 | 0.00 | 0.00 | 0.00 | 57 | 930.0 |
| 20260903060311 | 10 | 53 | 0.0 | 0.0 | 0.00 | 0.00 | 0.00 | 57 | 930.0 |
| 20260903055808 | 10 | 199 | 0.0 | 0.0 | 0.00 | 0.00 | 0.00 | 61 | 930.2 |
| 20260903055306 | 10 | 43 | 0.0 | 1.6 | 0.00 | 0.00 | 0.00 | 59 | 929.9 |
| 20260903054756 | 10 | 54 | 0.0 | 0.0 | 0.00 | 0.00 | 0.00 | 60 | 929.7 |
| 20260903054251 | 11 | 35 | 0.0 | 0.0 | 0.00 | 0.00 | 0.00 | 55 | 930.0 |
| 20260903053748 | 11 | 67 | 0.0 | 0.0 | 0.00 | 0.00 | 0.00 | 54 | 929.9 |
| 20260903053248 | 11 | 66 | 0.0 | 0.0 | 0.00 | 0.00 | 0.00 | 55 | 930.0 |
| 20260903052743 | 11 | 60 | 0.0 | 0.0 | 0.00 | 0.00 | 0.00 | 54 | 929.9 |
| 20260903052239 | 11 | 82 | 0.0 | 0.0 | 0.00 | 0.00 | 0.00 | 54 | 930.0 |
| 20260903051734 | 11 | 71 | 0.0 | 0.0 | 0.00 | 0.00 | 0.00 | 52 | 930.0 |
| 20260903051230 | 11 | 64 | 0.0 | 0.0 | 0.00 | 0.00 | 0.00 | 52 | 930.1 |
| 20260903050725 | 11 | 85 | 0.0 | 0.0 | 0.00 | 0.00 | 0.00 | 53 | 930.1 |
| 20260903050224 | 11 | 87 | 0.0 | 0.0 | 0.00 | 0.00 | 0.00 | 54 | 930.0 |
| 20260903045719 | 11 | 81 | 0.0 | 0.0 | 0.00 | 0.00 | 0.00 | 53 | 930.2 |
| 20260903045215 | 11 | 51 | 0.0 | 0.0 | 0.00 | 0.00 | 0.00 | 52 | 930.1 |
| 20260903044711 | 11 | 82 | 0.0 | 3.2 | 0.00 | 0.00 | 0.00 | 53 | 930.2 |
| 20260903044206 | 12 | 54 | 0.0 | 0.0 | 0.00 | 0.00 | 0.00 | 49 | 930.1 |
| 20260903043703 | 12 | 58 | 0.0 | 0.0 | 0.00 | 0.00 | 0.00 | 49 | 930.3 |
| 20260903043202 | 12 | 80 | 1.6 | 4.8 | 0.00 | 0.00 | 0.00 | 48 | 930.1 |
| 20260903042701 | 12 | 79 | 4.8 | 12.9 | 0.00 | 0.00 | 0.00 | 48 | 930.2 |
| 20260903042156 | 12 | 60 | 0.0 | 0.0 | 0.00 | 0.00 | 0.00 | 49 | 930.5 |
| 20260903041653 | 12 | 74 | 1.6 | 4.8 | 0.00 | 0.00 | 0.00 | 52 | 930.4 |
| 20260903041148 | 13 | 71 | 0.0 | 0.0 | 0.00 | 0.00 | 0.00 | 49 | 930.3 |
| 20260903040648 | 13 | 58 | 0.0 | 0.0 | 0.00 | 0.00 | 0.00 | 50 | 930.2 |
| 20260903040144 | 13 | 107 | 0.0 | 0.0 | 0.00 | 0.00 | 0.00 | 52 | 930.2 |
| 20260903035640 | 13 | 98 | 0.0 | 0.0 | 0.00 | 0.00 | 0.00 | 53 | 930.1 |
| 20260903035135 | 13 | 49 | 0.0 | 0.0 | 0.00 | 0.00 | 0.00 | 51 | 929.7 |
| 20260903034630 | 13 | 42 | 0.0 | 0.0 | 0.00 | 0.00 | 0.00 | 49 | 929.5 |
| 20260903034125 | 15 | 61 | 0.0 | 0.0 | 0.00 | 0.00 | 0.00 | 46 | 929.5 |
| 20260903033620 | 13 | 73 | 0.0 | 0.0 | 0.00 | 0.00 | 0.00 | 48 | 929.4 |
| 20260903033115 | 13 | 100 | 0.0 | 0.0 | 0.00 | 0.00 | 0.00 | 47 | 929.9 |
| 20260903032610 | 14 | 33 | 0.0 | 3.2 | 0.00 | 0.00 | 0.00 | 46 | 929.9 |
| 20260903032105 | 14 | 44 | 0.0 | 0.0 | 0.00 | 0.00 | 0.00 | 44 | 930.0 |
| 20260903031600 | 14 | 51 | 0.0 | 0.0 | 0.00 | 0.00 | 0.00 | 46 | 930.0 |
| 20260903031055 | 14 | 22 | 0.0 | 0.0 | 0.00 | 0.00 | 0.00 | 48 | 930.0 |
| 20260903030550 | 16 | 41 | 0.0 | 0.0 | 0.00 | 0.00 | 0.00 | 45 | 929.9 |
| 20260903030047 | 16 | 65 | 0.0 | 0.0 | 0.00 | 0.00 | 0.00 | 38 | 929.7 |
| 20260903025541 | 15 | 54 | 0.0 | 0.0 | 0.00 | 0.00 | 0.00 | 40 | 929.7 |
| 20260903025037 | 15 | 11 | 0.0 | 0.0 | 0.00 | 0.00 | 0.00 | 42 | 929.9 |
| 20260903024536 | 15 | 21 | 0.0 | 0.0 | 0.00 | 0.00 | 0.00 | 45 | 929.7 |
| 20260903024031 | 16 | 21 | 0.0 | 0.0 | 0.00 | 0.00 | 0.00 | 45 | 930.1 |
| 20260903023527 | 16 | 359 | 0.0 | 0.0 | 0.00 | 0.00 | 0.00 | 43 | 930.0 |
| 20260903023022 | 16 | 36 | 0.0 | 0.0 | 0.00 | 0.00 | 0.00 | 39 | 930.0 |
| 20260903022521 | 16 | 35 | 0.0 | 0.0 | 0.00 | 0.00 | 0.00 | 42 | 930.1 |
| 20260903022020 | 17 | 35 | 0.0 | 0.0 | 0.00 | 0.00 | 0.00 | 41 | 930.0 |
| 20260903021515 | 18 | 35 | 0.0 | 0.0 | 0.00 | 0.00 | 0.00 | 35 | 930.1 |
| 20260903021010 | 18 | 35 | 0.0 | 0.0 | 0.00 | 0.00 | 0.00 | 34 | 930.2 |
| 20260903020506 | 19 | 36 | 0.0 | 0.0 | 0.00 | 0.00 | 0.00 | 31 | 930.1 |
| 20260903020000 | 19 | 16 | 0.0 | 0.0 | 0.00 | 0.00 | 0.00 | 30 | 929.9 |
| 20260903015456 | 20 | 10 | 0.0 | 0.0 | 0.00 | 0.00 | 0.00 | 29 | 929.6 |
| 20260903014955 | 20 | 298 | 0.0 | 0.0 | 0.00 | 0.00 | 0.00 | 29 | 929.5 |
| 20260903014449 | 20 | 291 | 0.0 | 0.0 | 0.00 | 0.00 | 0.00 | 27 | 929.4 |
| 20260903013944 | 21 | 257 | 0.0 | 0.0 | 0.00 | 0.00 | 0.00 | 27 | 929.6 |
| 20260903013444 | 21 | 272 | 1.6 | 12.9 | 0.00 | 0.00 | 0.00 | 26 | 929.7 |
| 20260903012943 | 21 | 315 | 6.4 | 14.5 | 0.00 | 0.00 | 0.00 | 27 | 929.6 |
| 20260903012438 | 21 | 278 | 3.2 | 9.7 | 0.00 | 0.00 | 0.00 | 25 | 930.0 |
| 20260903011937 | 21 | 201 | 9.7 | 17.7 | 0.00 | 0.00 | 0.00 | 25 | 929.9 |
| 20260903011432 | 21 | 330 | 4.8 | 9.7 | 0.00 | 0.00 | 0.00 | 26 | 930.1 |
| 20260903010932 | 21 | 255 | 11.3 | 17.7 | 0.00 | 0.00 | 0.00 | 24 | 930.0 |
| 20260903010427 | 22 | 279 | 9.7 | 14.5 | 0.00 | 0.00 | 0.00 | 24 | 930.0 |
| 20260903005925 | 22 | 241 | 11.3 | 20.9 | 0.00 | 0.00 | 0.00 | 24 | 930.0 |
| 20260903005415 | 22 | 262 | 14.5 | 22.5 | 0.00 | 0.00 | 0.00 | 24 | 930.0 |
| 20260903004912 | 23 | 190 | 9.7 | 22.5 | 0.00 | 0.00 | 0.00 | 24 | 930.0 |
| 20260903004406 | 23 | 260 | 9.7 | 16.1 | 0.00 | 0.00 | 0.00 | 25 | 930.3 |
| 20260903003902 | 23 | 258 | 16.1 | 20.9 | 0.00 | 0.00 | 0.00 | 24 | 930.4 |
| 20260903003402 | 23 | 273 | 4.8 | 17.7 | 0.00 | 0.00 | 0.00 | 25 | 930.3 |
| 20260903002856 | 23 | 221 | 11.3 | 22.5 | 0.00 | 0.00 | 0.00 | 25 | 930.3 |
| 20260903002351 | 23 | 261 | 0.0 | 9.7 | 0.00 | 0.00 | 0.00 | 25 | 930.4 |
| 20260903001845 | 23 | 165 | 17.7 | 25.7 | 0.00 | 0.00 | 0.00 | 22 | 930.4 |
| 20260903001341 | 23 | 308 | 1.6 | 16.1 | 0.00 | 0.00 | 0.00 | 25 | 930.2 |
| 20260903000840 | 24 | 342 | 12.9 | 27.4 | 0.00 | 0.00 | 0.00 | 24 | 930.4 |
| 20260903000336 | 24 | 223 | 8.0 | 25.7 | 0.00 | 0.00 | 0.00 | 23 | 930.3 |
| 20260902235834 | 23 | 252 | 11.3 | 17.7 | 0.00 | 0.00 | 0.00 | 23 | 930.3 |
| 20260902235329 | 23 | 194 | 9.7 | 14.5 | 0.00 | 0.00 | 0.00 | 24 | 930.5 |
| 20260902234829 | 24 | 252 | 17.7 | 25.7 | 0.00 | 0.00 | 0.00 | 23 | 930.7 |
| 20260902234328 | 24 | 227 | 12.9 | 24.1 | 0.00 | 0.00 | 0.00 | 23 | 930.5 |
| 20260902233827 | 25 | 285 | 11.3 | 16.1 | 0.00 | 0.00 | 0.00 | 23 | 930.4 |
| 20260902233328 | 24 | 215 | 9.7 | 22.5 | 0.00 | 0.00 | 0.00 | 23 | 930.4 |
| 20260902232826 | 24 | 237 | 19.3 | 32.2 | 0.00 | 0.00 | 0.00 | 22 | 930.4 |
| 20260902232321 | 24 | 254 | 12.9 | 27.4 | 0.00 | 0.00 | 0.00 | 23 | 930.7 |
| 20260902231820 | 25 | 320 | 9.7 | 24.1 | 0.00 | 0.00 | 0.00 | 24 | 930.3 |
| 20260902231316 | 25 | 243 | 3.2 | 27.4 | 0.00 | 0.00 | 0.00 | 23 | 930.7 |
| 20260902230811 | 24 | 233 | 8.0 | 27.4 | 0.00 | 0.00 | 0.00 | 23 | 930.4 |
| 20260902230309 | 24 | 246 | 8.0 | 22.5 | 0.00 | 0.00 | 0.00 | 23 | 930.4 |
| 20260902225804 | 24 | 218 | 12.9 | 20.9 | 0.00 | 0.00 | 0.00 | 23 | 930.5 |
| 20260902225259 | 25 | 227 | 17.7 | 32.2 | 0.00 | 0.00 | 0.00 | 21 | 930.9 |
| 20260902224758 | 25 | 264 | 17.7 | 33.8 | 0.00 | 0.00 | 0.00 | 22 | 930.7 |
| 20260902224253 | 24 | 244 | 11.3 | 25.7 | 0.00 | 0.00 | 0.00 | 24 | 930.2 |
| 20260902223750 | 23 | 259 | 12.9 | 33.8 | 0.00 | 0.00 | 0.00 | 23 | 930.3 |
| 20260902223249 | 23 | 232 | 17.7 | 27.4 | 0.00 | 0.00 | 0.00 | 23 | 930.7 |
| 20260902222748 | 23 | 199 | 8.0 | 20.9 | 0.00 | 0.00 | 0.00 | 25 | 930.5 |
| 20260902222248 | 23 | 316 | 4.8 | 24.1 | 0.00 | 0.00 | 0.00 | 25 | 930.8 |
| 20260902221742 | 24 | 249 | 9.7 | 17.7 | 0.00 | 0.00 | 0.00 | 25 | 930.9 |
| 20260902221242 | 23 | 233 | 14.5 | 22.5 | 0.00 | 0.00 | 0.00 | 25 | 930.5 |
| 20260902220738 | 23 | 184 | 16.1 | 22.5 | 0.00 | 0.00 | 0.00 | 25 | 930.7 |
| 20260902220237 | 23 | 241 | 14.5 | 17.7 | 0.00 | 0.00 | 0.00 | 25 | 930.8 |
| 20260902215733 | 25 | 159 | 9.7 | 22.5 | 0.00 | 0.00 | 0.00 | 24 | 930.8 |
| 20260902215228 | 25 | 166 | 14.5 | 22.5 | 0.00 | 0.00 | 0.00 | 25 | 930.5 |
| 20260902214724 | 24 | 211 | 17.7 | 29.0 | 0.00 | 0.00 | 0.00 | 25 | 930.7 |
| 20260902214222 | 24 | 224 | 17.7 | 22.5 | 0.00 | 0.00 | 0.00 | 25 | 930.5 |
| 20260902213718 | 25 | 256 | 6.4 | 25.7 | 0.00 | 0.00 | 0.00 | 25 | 930.7 |
| 20260902213213 | 24 | 167 | 9.7 | 22.5 | 0.00 | 0.00 | 0.00 | 25 | 930.7 |
| 20260902212713 | 25 | 236 | 20.9 | 25.7 | 0.00 | 0.00 | 0.00 | 24 | 930.7 |
| 20260902212209 | 25 | 267 | 11.3 | 24.1 | 0.00 | 0.00 | 0.00 | 25 | 930.8 |
| 20260902211705 | 25 | 273 | 12.9 | 24.1 | 0.00 | 0.00 | 0.00 | 26 | 930.5 |
| 20260902211200 | 24 | 201 | 20.9 | 33.8 | 0.00 | 0.00 | 0.00 | 27 | 930.8 |
| 20260902210659 | 25 | 275 | 11.3 | 22.5 | 0.00 | 0.00 | 0.00 | 28 | 930.7 |
| 20260902210155 | 25 | 245 | 11.3 | 17.7 | 0.00 | 0.00 | 0.00 | 26 | 930.9 |
| 20260902205653 | 23 | 234 | 11.3 | 27.4 | 0.00 | 0.00 | 0.00 | 28 | 930.9 |
| 20260902205148 | 23 | 198 | 16.1 | 25.7 | 0.00 | 0.00 | 0.00 | 28 | 930.8 |
| 20260902204643 | 24 | 178 | 9.7 | 29.0 | 0.00 | 0.00 | 0.00 | 28 | 931.0 |
| 20260902204138 | 23 | 148 | 11.3 | 29.0 | 0.00 | 0.00 | 0.00 | 28 | 930.9 |
| 20260902203634 | 25 | 243 | 9.7 | 22.5 | 0.00 | 0.00 | 0.00 | 28 | 931.1 |
| 20260902203133 | 24 | 238 | 11.3 | 22.5 | 0.00 | 0.00 | 0.00 | 29 | 931.2 |
| 20260902202629 | 23 | 233 | 20.9 | 37.0 | 0.00 | 0.00 | 0.00 | 29 | 930.9 |
| 20260902202125 | 24 | 233 | 12.9 | 41.8 | 0.00 | 0.00 | 0.00 | 29 | 931.1 |
| 20260902201621 | 23 | 192 | 16.1 | 20.9 | 0.00 | 0.00 | 0.00 | 30 | 931.2 |
| 20260902201120 | 23 | 336 | 1.6 | 32.2 | 0.00 | 0.00 | 0.00 | 29 | 931.2 |
| 20260902200615 | 24 | 216 | 22.5 | 32.2 | 0.00 | 0.00 | 0.00 | 28 | 931.1 |
| 20260902200112 | 23 | 240 | 19.3 | 33.8 | 0.00 | 0.00 | 0.00 | 31 | 931.3 |
| 20260902195607 | 23 | 233 | 14.5 | 46.7 | 0.00 | 0.00 | 0.00 | 30 | 931.5 |
| 20260902195106 | 23 | 194 | 32.2 | 54.7 | 0.00 | 0.00 | 0.00 | 29 | 931.6 |
| 20260902194606 | 23 | 238 | 17.7 | 27.4 | 0.00 | 0.00 | 0.00 | 32 | 931.5 |
| 20260902194101 | 23 | 130 | 24.1 | 32.2 | 0.00 | 0.00 | 0.00 | 32 | 931.7 |
| 20260902193557 | 23 | 193 | 12.9 | 29.0 | 0.00 | 0.00 | 0.00 | 33 | 931.7 |
| 20260902193056 | 23 | 267 | 25.7 | 37.0 | 0.00 | 0.00 | 0.00 | 31 | 931.7 |
| 20260902192555 | 23 | 148 | 12.9 | 29.0 | 0.00 | 0.00 | 0.00 | 34 | 931.7 |
| 20260902192054 | 23 | 215 | 16.1 | 20.9 | 0.00 | 0.00 | 0.00 | 33 | 931.8 |
| 20260902191549 | 23 | 202 | 19.3 | 38.6 | 0.00 | 0.00 | 0.00 | 33 | 931.3 |
| 20260902191043 | 23 | 193 | 20.9 | 33.8 | 0.00 | 0.00 | 0.00 | 34 | 931.8 |
| 20260902190539 | 23 | 230 | 24.1 | 32.2 | 0.00 | 0.00 | 0.00 | 34 | 932.0 |
| 20260902190035 | 23 | 227 | 4.8 | 37.0 | 0.00 | 0.00 | 0.00 | 35 | 931.9 |
| 20260902185531 | 23 | 315 | 16.1 | 27.4 | 0.00 | 0.00 | 0.00 | 35 | 931.8 |
| 20260902185026 | 23 | 253 | 17.7 | 32.2 | 0.00 | 0.00 | 0.00 | 35 | 931.9 |
| 20260902184521 | 22 | 199 | 19.3 | 33.8 | 0.00 | 0.00 | 0.00 | 35 | 932.4 |
| 20260902184016 | 22 | 201 | 14.5 | 27.4 | 0.00 | 0.00 | 0.00 | 37 | 932.0 |
| 20260902183513 | 22 | 206 | 11.3 | 27.4 | 0.00 | 0.00 | 0.00 | 37 | 932.4 |
| 20260902183009 | 22 | 246 | 8.0 | 32.2 | 0.00 | 0.00 | 0.00 | 39 | 932.3 |
| 20260902182504 | 22 | 188 | 25.7 | 33.8 | 0.00 | 0.00 | 0.00 | 37 | 932.4 |
| 20260902182000 | 22 | 194 | 9.7 | 24.1 | 0.00 | 0.00 | 0.00 | 37 | 932.6 |
| 20260902181456 | 22 | 279 | 12.9 | 24.1 | 0.00 | 0.00 | 0.00 | 37 | 932.5 |
| 20260902180950 | 22 | 200 | 14.5 | 37.0 | 0.00 | 0.00 | 0.00 | 36 | 932.3 |
| 20260902180445 | 22 | 214 | 17.7 | 27.4 | 0.00 | 0.00 | 0.00 | 37 | 932.5 |
| 20260902175941 | 22 | 177 | 24.1 | 38.6 | 0.00 | 0.00 | 0.00 | 36 | 932.6 |
| 20260902175441 | 22 | 244 | 24.1 | 33.8 | 0.00 | 0.00 | 0.00 | 37 | 932.4 |
| 20260902174937 | 22 | 150 | 16.1 | 27.4 | 0.00 | 0.00 | 0.00 | 37 | 932.8 |
| 20260902174434 | 22 | 213 | 16.1 | 25.7 | 0.00 | 0.00 | 0.00 | 37 | 932.6 |
| 20260902173929 | 21 | 278 | 16.1 | 20.9 | 0.00 | 0.00 | 0.00 | 38 | 933.1 |
| 20260902173428 | 21 | 251 | 16.1 | 29.0 | 0.00 | 0.00 | 0.00 | 38 | 933.4 |
| 20260902172923 | 21 | 226 | 17.7 | 29.0 | 0.00 | 0.00 | 0.00 | 37 | 933.2 |
| 20260902172423 | 22 | 249 | 16.1 | 25.7 | 0.00 | 0.00 | 0.00 | 38 | 932.9 |
| 20260902171918 | 22 | 252 | 20.9 | 33.8 | 0.00 | 0.00 | 0.00 | 38 | 932.7 |
| 20260902171413 | 22 | 241 | 12.9 | 16.1 | 0.00 | 0.00 | 0.00 | 38 | 932.6 |
| 20260902170909 | 22 | 183 | 16.1 | 25.7 | 0.00 | 0.00 | 0.00 | 38 | 932.6 |
| 20260902170404 | 22 | 254 | 17.7 | 25.7 | 0.00 | 0.00 | 0.00 | 39 | 932.6 |
| 20260902165900 | 21 | 287 | 11.3 | 29.0 | 0.00 | 0.00 | 0.00 | 40 | 932.5 |
| 20260902165359 | 21 | 211 | 9.7 | 22.5 | 0.00 | 0.00 | 0.00 | 41 | 932.7 |
| 20260902164854 | 21 | 177 | 11.3 | 22.5 | 0.00 | 0.00 | 0.00 | 40 | 933.1 |
| 20260902164349 | 21 | 249 | 16.1 | 22.5 | 0.00 | 0.00 | 0.00 | 40 | 932.8 |
| 20260902163848 | 20 | 175 | 8.0 | 20.9 | 0.00 | 0.00 | 0.00 | 43 | 932.9 |
| 20260902163343 | 20 | 295 | 4.8 | 22.5 | 0.00 | 0.00 | 0.00 | 44 | 933.1 |
| 20260902162841 | 21 | 183 | 0.0 | 17.7 | 0.00 | 0.00 | 0.00 | 42 | 933.3 |
| 20260902162336 | 20 | 212 | 14.5 | 20.9 | 0.00 | 0.00 | 0.00 | 45 | 932.8 |
| 20260902161831 | 20 | 102 | 4.8 | 16.1 | 0.00 | 0.00 | 0.00 | 45 | 933.1 |
| 20260902161327 | 20 | 213 | 14.5 | 22.5 | 0.00 | 0.00 | 0.00 | 45 | 932.9 |
| 20260902160823 | 20 | 221 | 14.5 | 17.7 | 0.00 | 0.00 | 0.00 | 45 | 932.8 |
| 20260902160318 | 20 | 183 | 9.7 | 20.9 | 0.00 | 0.00 | 0.00 | 47 | 932.9 |
| 20260902155816 | 20 | 229 | 12.9 | 29.0 | 0.00 | 0.00 | 0.00 | 47 | 933.1 |
| 20260902155315 | 19 | 155 | 6.4 | 25.7 | 0.00 | 0.00 | 0.00 | 49 | 932.9 |
| 20260902154810 | 19 | 200 | 9.7 | 33.8 | 0.00 | 0.00 | 0.00 | 51 | 933.2 |
| 20260902154306 | 18 | 189 | 6.4 | 12.9 | 0.00 | 0.00 | 0.00 | 53 | 933.4 |
| 20260902153804 | 18 | 191 | 12.9 | 20.9 | 0.00 | 0.00 | 0.00 | 53 | 933.5 |
| 20260902153259 | 18 | 210 | 4.8 | 16.1 | 0.00 | 0.00 | 0.00 | 56 | 933.4 |
| 20260902152755 | 17 | 187 | 8.0 | 9.7 | 0.00 | 0.00 | 0.00 | 57 | 933.4 |
| 20260902152251 | 17 | 227 | 11.3 | 17.7 | 0.00 | 0.00 | 0.00 | 57 | 933.5 |
| 20260902151751 | 16 | 213 | 8.0 | 14.5 | 0.00 | 0.00 | 0.00 | 59 | 933.3 |
| 20260902151246 | 16 | 150 | 4.8 | 12.9 | 0.00 | 0.00 | 0.00 | 62 | 933.4 |
| 20260902150745 | 16 | 191 | 9.7 | 14.5 | 0.00 | 0.00 | 0.00 | 62 | 933.5 |
| 20260902150242 | 15 | 226 | 9.7 | 20.9 | 0.00 | 0.00 | 0.00 | 67 | 933.5 |
| 20260902145741 | 15 | 63 | 1.6 | 3.2 | 0.00 | 0.00 | 0.00 | 69 | 933.4 |
| 20260902145237 | 15 | 40 | 0.0 | 1.6 | 0.00 | 0.00 | 0.00 | 71 | 933.5 |
| 20260902144732 | 14 | 60 | 1.6 | 4.8 | 0.00 | 0.00 | 0.00 | 71 | 933.6 |
| 20260902144228 | 13 | 67 | 0.0 | 0.0 | 0.00 | 0.00 | 0.00 | 72 | 933.6 |
| 20260902143723 | 13 | 133 | 0.0 | 0.0 | 0.00 | 0.00 | 0.00 | 72 | 933.4 |
| 20260902143218 | 13 | 42 | 0.0 | 0.0 | 0.00 | 0.00 | 0.00 | 71 | 933.6 |
| 20260902142714 | 13 | 50 | 0.0 | 1.6 | 0.00 | 0.00 | 0.00 | 71 | 933.7 |
| 20260902142209 | 13 | 50 | 0.0 | 4.8 | 0.00 | 0.00 | 0.00 | 71 | 933.7 |
| 20260902141709 | 14 | 90 | 4.8 | 4.8 | 0.00 | 0.00 | 0.00 | 70 | 933.9 |
| 20260902141205 | 13 | 37 | 0.0 | 0.0 | 0.00 | 0.00 | 0.00 | 71 | 934.2 |
| 20260902140701 | 12 | 73 | 1.6 | 4.8 | 0.00 | 0.00 | 0.00 | 75 | 934.1 |
| 20260902140200 | 12 | 51 | 0.0 | 0.0 | 0.00 | 0.00 | 0.00 | 77 | 934.2 |
| 20260902135700 | 12 | 54 | 0.0 | 0.0 | 0.00 | 0.00 | 0.00 | 78 | 934.1 |
| 20260902135155 | 11 | 44 | 0.0 | 0.0 | 0.00 | 0.00 | 0.00 | 78 | 934.0 |
| 20260902134650 | 11 | 73 | 3.2 | 4.8 | 0.00 | 0.00 | 0.00 | 79 | 933.7 |
| 20260902134150 | 11 | 81 | 0.0 | 0.0 | 0.00 | 0.00 | 0.00 | 78 | 932.9 |
| 20260902133645 | 11 | 63 | 0.0 | 0.0 | 0.00 | 0.00 | 0.00 | 78 | 933.1 |
| 20260902133140 | 11 | 64 | 1.6 | 3.2 | 0.00 | 0.00 | 0.00 | 80 | 933.2 |
| 20260902132635 | 10 | 8 | 1.6 | 3.2 | 0.00 | 0.00 | 0.00 | 82 | 932.6 |
| 20260902132131 | 10 | 40 | 0.0 | 0.0 | 0.00 | 0.00 | 0.00 | 82 | 932.4 |
| 20260902131626 | 10 | 85 | 3.2 | 3.2 | 0.00 | 0.00 | 0.00 | 82 | 932.4 |